Home > Weather > Santarém > Past weeks

Flag for Brazil Past Weather in Santarém, Pará, Brazil — Yesterday and Last 2 Weeks

Now
73 °F

Clear.


Feels Like: 70 °F
Forecast: 74 / 89 °F
Wind: 2 mph from Southeast

Location: Santarem-Aeroporto

Current Time: Jul 27, 2016 at 6:48:13 AM

Latest Report: Jul 27, 2016 at 6:00 AM


Visibility: 10 mi

Pressure: 29.89 "Hg

Humidity: 94%

Dew Point: 72 °F

Location of SantarémLocation

Past Weather in Santarém — Graph

°F

Santarém Temperature Yesterday

Maximum temperature yesterday: 91 °F (at 4:00 PM)
Minimum temperature yesterday: 72 °F (at 5:00 AM)
Average temperature yesterday: 80 °F

High & Low Weather Summary for the Past Weeks

 TemperatureHumidityPressure
High91 °F (Jul 26, 4:00 PM)100% (Jul 12, 6:00 AM)30.04 "Hg (Jul 12, 6:00 AM)
Low72 °F (Jul 15, 5:00 AM)55% (Jul 25, 4:00 PM)29.77 "Hg (Jul 15, 4:00 PM)
Average80 °F83%29.89 "Hg
* Reported Jul 12 6:00 AM — Jul 27 6:00 AM, Santarém, Weather by CustomWeather, © 2016

Note: Actual official high and low records may vary slightly from our data, if they occured in-between our weather recording intervals... More about our weather records

Advertising

Santarém Weather History for the Previous 24 Hours

Scroll right to see more
 ConditionsComfort  
Time TempWeatherWind HumidityBarometerVisibility
6:00 AM
Wed, Jul 27
73 °FClear.2 mph94%29.89 "Hg10 mi
5:00 AM73 °FClear.No wind100%29.89 "Hg10 mi
4:00 AM75 °FClear.No wind94%29.89 "Hg10 mi
3:00 AM75 °FClear.No wind94%29.86 "Hg10 mi
2:00 AM73 °FClear.No wind94%29.89 "Hg10 mi
1:00 AM73 °FClear.No wind94%29.92 "Hg10 mi
12:00 AM73 °FClear.No wind94%29.92 "Hg10 mi
11:00 PM
Tue, Jul 26
73 °FClear.No wind94%29.89 "Hg10 mi
10:00 PM73 °FClear.No wind89%29.89 "Hg10 mi
9:00 PM75 °FClear.1 mph83%29.89 "Hg10 mi
8:00 PM77 °FPassing clouds.No wind79%29.86 "HgN/A
7:00 PM81 °FPassing clouds.No wind74%29.89 "HgN/A
6:00 PM88 °FPassing clouds.9 mph66%29.83 "HgN/A
5:00 PM90 °FPassing clouds.8 mph63%29.80 "HgN/A
4:00 PM91 °FPassing clouds.12 mph56%29.83 "HgN/A
3:00 PM90 °FPassing clouds.14 mph59%29.83 "HgN/A
2:00 PM90 °FPassing clouds.13 mph59%29.86 "HgN/A
1:00 PM90 °FPassing clouds.10 mph67%29.89 "HgN/A
12:00 PM86 °FScattered clouds.7 mph70%29.92 "HgN/A
11:00 AM86 °FScattered clouds.8 mph66%29.92 "HgN/A
10:00 AM84 °FPartly sunny.8 mph70%29.92 "HgN/A
9:00 AM82 °FPartly sunny.5 mph79%29.92 "HgN/A
8:00 AM75 °FPartly sunny.No wind100%29.89 "HgN/A
7:00 AM73 °FPassing clouds.No wind94%29.86 "HgN/A
6:00 AM72 °FClear.No wind100%29.86 "Hg10 mi
Weather by CustomWeather, © 2016

See weather overviewHow to use our weather pages